Tracking 30289 objects as of 29-Apr-2025
HD Live streaming from Space Station
objects crossing your sky now

OPS 7613 (P/L 1)

Track OPS 7613 (P/L 1) now!
10-day predictions
OPS 7613 (P/L 1) is classified as:


NORAD ID: 4256
Int'l Code: 1969-082B
Perigee: 888.2 km
Apogee: 920.3 km
Inclination: 70.0 °
Period: 102.9 minutes
Semi major axis: 7275 km
RCS: 0.5333 m2 (medium)
Launch date: September 30, 1969
Source: United States (US)
Launch site: AIR FORCE WESTERN TEST RANGE (AFWTR)
Your satellite tracking list
Your tracking list is empty




NASA's NSSDC Master Catalog

Two Line Element Set (TLE):
1 04256U 69082B   25118.43932703  .00000214  00000-0  18417-3 0  9991
2 04256  70.0073 135.8870 0022088 250.2983 109.5741 13.99041978832457
Source of the keplerian elements: AFSPC